• In Russia
  • List of Countries
  • For 7 days
  • Water Temperature
  • Weather Map
  • Weather Widgets
  • user-avatar
    Login

    Hourly Weather Giumri

    Today, 23 August, Friday

    Time Temperature Precipitation Wind Pressure Humidity
    00:00 +17°C° 0 mm 3 mps 634 mmHg 48%
    01:00 +16°C° 0 mm 3 mps 634 mmHg 49%
    02:00 +16°C° 0 mm 3 mps 634 mmHg 49%
    03:00 +16°C° 0 mm 3 mps 634 mmHg 52%
    04:00 +14°C° 0 mm 3 mps 634 mmHg 54%
    05:00 +14°C° 0 mm 3 mps 634 mmHg 56%
    06:00 +14°C° 0 mm 3 mps 634 mmHg 58%
    07:00 +17°C° 0 mm 3 mps 635 mmHg 53%
    08:00 +20°C° 0 mm 3 mps 636 mmHg 48%
    09:00 +23°C° 0 mm 4 mps 636 mmHg 43%
    10:00 +25°C° 0 mm 4 mps 637 mmHg 40%
    11:00 +27°C° 0 mm 4 mps 637 mmHg 37%
    12:00 +28°C° 0 mm 4 mps 637 mmHg 34%
    13:00 +28°C° 0 mm 5 mps 637 mmHg 34%
    14:00 +29°C° 0 mm 5 mps 637 mmHg 35%
    15:00 +29°C° 0 mm 6 mps 636 mmHg 35%
    16:00 +28°C° 0 mm 6 mps 636 mmHg 39%
    17:00 +26°C° 0 mm 5 mps 636 mmHg 44%
    18:00 +25°C° 0 mm 5 mps 635 mmHg 48%
    19:00 +22°C° 0 mm 5 mps 635 mmHg 52%
    20:00 +20°C° 0 mm 4 mps 635 mmHg 55%
    21:00 +18°C° 0 mm 3 mps 635 mmHg 59%
    22:00 +18°C° 0 mm 3 mps 635 mmHg 60%
    23:00 +17°C° 0 mm 3 mps 635 mmHg 60%

    Tomorrow, 24 August, Saturday

    Time Temperature Precipitation Wind Pressure Humidity
    00:00 +17°C° 0 mm 2 mps 635 mmHg 61%
    01:00 +17°C° 0 mm 2 mps 635 mmHg 62%
    02:00 +16°C° 0 mm 2 mps 635 mmHg 62%
    03:00 +16°C° 0 mm 2 mps 635 mmHg 63%
    04:00 +16°C° 0 mm 2 mps 635 mmHg 63%
    05:00 +16°C° 0 mm 2 mps 635 mmHg 63%
    06:00 +15°C° 0 mm 2 mps 635 mmHg 63%
    07:00 +18°C° 0 mm 2 mps 636 mmHg 56%
    08:00 +21°C° 0 mm 2 mps 637 mmHg 48%
    09:00 +25°C° 0 mm 2 mps 638 mmHg 41%
    10:00 +26°C° 0 mm 2 mps 638 mmHg 38%
    11:00 +28°C° 0 mm 2 mps 638 mmHg 35%
    12:00 +29°C° 0 mm 2 mps 638 mmHg 32%
    13:00 +29°C° 0.1 mm 3 mps 638 mmHg 34%
    14:00 +28°C° 0.1 mm 3 mps 638 mmHg 37%
    15:00 +28°C° 0.1 mm 4 mps 637 mmHg 39%
    16:00 +25°C° 1.3 mm 4 mps 637 mmHg 49%
    17:00 +21°C° 1.3 mm 5 mps 636 mmHg 60%
    18:00 +17°C° 1.3 mm 6 mps 635 mmHg 70%
    19:00 +18°C° 0.6 mm 4 mps 636 mmHg 72%
    20:00 +18°C° 0.6 mm 3 mps 636 mmHg 75%
    21:00 +17°C° 0.6 mm 2 mps 637 mmHg 77%
    22:00 +17°C° 0 mm 2 mps 637 mmHg 77%
    23:00 +18°C° 0 mm 1 mps 637 mmHg 77%

    Day after tomorrow, 25 August, Sunday

    Time Temperature Precipitation Wind Pressure Humidity
    00:00 +16°C° 0 mm 1 mps 636 mmHg 77%
    01:00 +16°C° 0 mm 1 mps 636 mmHg 77%
    02:00 +16°C° 0 mm 1 mps 636 mmHg 77%
    03:00 +15°C° 0 mm 1 mps 636 mmHg 78%
    04:00 +15°C° 0 mm 1 mps 636 mmHg 77%
    05:00 +15°C° 0 mm 1 mps 636 mmHg 76%
    06:00 +15°C° 0 mm 1 mps 636 mmHg 76%
    07:00 +19°C° 0 mm 1 mps 636 mmHg 67%
    08:00 +21°C° 0 mm 1 mps 637 mmHg 59%
    09:00 +23°C° 0 mm 1 mps 638 mmHg 51%
    10:00 +25°C° 0 mm 1 mps 638 mmHg 45%
    11:00 +27°C° 0 mm 1 mps 638 mmHg 39%
    12:00 +28°C° 0 mm 1 mps 638 mmHg 34%
    13:00 +29°C° 0 mm 1 mps 638 mmHg 32%
    14:00 +29°C° 0 mm 1 mps 638 mmHg 30%
    15:00 +30°C° 0 mm 2 mps 638 mmHg 28%
    16:00 +29°C° 0 mm 3 mps 637 mmHg 34%
    17:00 +27°C° 0 mm 4 mps 637 mmHg 41%
    18:00 +26°C° 0 mm 5 mps 636 mmHg 48%
    19:00 +23°C° 0 mm 4 mps 636 mmHg 52%
    20:00 +22°C° 0 mm 3 mps 636 mmHg 57%
    21:00 +20°C° 0 mm 3 mps 636 mmHg 61%
    22:00 +20°C° 0 mm 2 mps 636 mmHg 61%
    23:00 +19°C° 0 mm 2 mps 636 mmHg 61%

    26 August, Monday

    Time Temperature Precipitation Wind Pressure Humidity
    00:00 +19°C° 0 mm 2 mps 636 mmHg 61%
    01:00 +19°C° 0 mm 2 mps 636 mmHg 61%
    02:00 +19°C° 0 mm 2 mps 636 mmHg 62%
    03:00 +18°C° 0 mm 2 mps 636 mmHg 62%
    04:00 +18°C° 0 mm 2 mps 636 mmHg 65%
    05:00 +17°C° 0 mm 2 mps 636 mmHg 67%
    06:00 +17°C° 0 mm 2 mps 636 mmHg 69%
    07:00 +19°C° 0 mm 2 mps 636 mmHg 62%
    08:00 +23°C° 0 mm 2 mps 637 mmHg 55%
    09:00 +25°C° 0 mm 2 mps 637 mmHg 48%
    10:00 +26°C° 0.1 mm 2 mps 637 mmHg 44%
    11:00 +28°C° 0.1 mm 2 mps 638 mmHg 40%
    12:00 +30°C° 0.1 mm 3 mps 638 mmHg 36%
    13:00 +30°C° 0.1 mm 3 mps 637 mmHg 37%
    14:00 +30°C° 0.1 mm 4 mps 637 mmHg 38%
    15:00 +30°C° 0.1 mm 4 mps 637 mmHg 38%
    16:00 +27°C° 1.2 mm 4 mps 636 mmHg 48%
    17:00 +23°C° 1.2 mm 4 mps 635 mmHg 57%
    18:00 +20°C° 1.2 mm 5 mps 634 mmHg 67%
    19:00 +19°C° 0.7 mm 4 mps 635 mmHg 69%
    20:00 +19°C° 0.7 mm 4 mps 635 mmHg 71%
    21:00 +18°C° 0.7 mm 4 mps 636 mmHg 74%
    22:00 +18°C° 0.3 mm 3 mps 636 mmHg 75%
    23:00 +17°C° 0.3 mm 3 mps 636 mmHg 77%

    27 August, Tuesday

    Time Temperature Precipitation Wind Pressure Humidity
    00:00 +16°C° 0.3 mm 2 mps 636 mmHg 78%
    01:00 +16°C° 0 mm 2 mps 635 mmHg 78%
    02:00 +16°C° 0 mm 2 mps 635 mmHg 79%
    03:00 +15°C° 0 mm 2 mps 635 mmHg 79%
    04:00 +15°C° 0 mm 2 mps 635 mmHg 80%
    05:00 +15°C° 0 mm 2 mps 635 mmHg 82%
    06:00 +15°C° 0 mm 2 mps 635 mmHg 83%
    07:00 +17°C° 0 mm 2 mps 635 mmHg 77%
    08:00 +19°C° 0 mm 3 mps 636 mmHg 70%
    09:00 +20°C° 0 mm 3 mps 636 mmHg 64%
    10:00 +22°C° 0 mm 3 mps 636 mmHg 60%
    11:00 +24°C° 0 mm 3 mps 637 mmHg 55%
    12:00 +25°C° 0 mm 3 mps 637 mmHg 51%
    13:00 +26°C° 0 mm 4 mps 636 mmHg 50%
    14:00 +26°C° 0 mm 4 mps 636 mmHg 48%
    15:00 +27°C° 0 mm 4 mps 636 mmHg 47%
    16:00 +25°C° 0 mm 4 mps 635 mmHg 53%
    17:00 +23°C° 0 mm 5 mps 635 mmHg 59%
    18:00 +21°C° 0 mm 5 mps 634 mmHg 65%
    19:00 +20°C° 0.1 mm 4 mps 634 mmHg 69%
    20:00 +18°C° 0.1 mm 4 mps 634 mmHg 74%
    21:00 +17°C° 0.1 mm 4 mps 634 mmHg 78%
    22:00 +17°C° 0.1 mm 3 mps 634 mmHg 80%
    23:00 +16°C° 0.1 mm 3 mps 634 mmHg 81%

    28 August, Wednesday

    Time Temperature Precipitation Wind Pressure Humidity
    00:00 +16°C° 0.1 mm 3 mps 634 mmHg 83%
    01:00 +16°C° 0 mm 3 mps 634 mmHg 83%
    02:00 +15°C° 0 mm 2 mps 634 mmHg 84%
    03:00 +15°C° 0 mm 2 mps 634 mmHg 85%
    04:00 +15°C° 0 mm 2 mps 634 mmHg 85%
    05:00 +15°C° 0 mm 2 mps 634 mmHg 85%
    06:00 +15°C° 0 mm 2 mps 634 mmHg 85%
    07:00 +17°C° 0 mm 2 mps 635 mmHg 77%
    08:00 +19°C° 0 mm 2 mps 636 mmHg 69%
    09:00 +21°C° 0 mm 2 mps 636 mmHg 61%
    10:00 +23°C° 0.2 mm 2 mps 637 mmHg 55%
    11:00 +25°C° 0.2 mm 1 mps 637 mmHg 49%
    12:00 +26°C° 0.2 mm 1 mps 637 mmHg 44%
    13:00 +27°C° 0.1 mm 2 mps 637 mmHg 42%
    14:00 +28°C° 0.1 mm 3 mps 637 mmHg 40%
    15:00 +28°C° 0.1 mm 3 mps 637 mmHg 38%
    16:00 +26°C° 0.5 mm 4 mps 636 mmHg 47%
    17:00 +23°C° 0.5 mm 4 mps 636 mmHg 55%
    18:00 +21°C° 0.5 mm 5 mps 635 mmHg 64%
    19:00 +20°C° 0 mm 4 mps 635 mmHg 67%
    20:00 +19°C° 0 mm 3 mps 635 mmHg 71%
    21:00 +18°C° 0 mm 2 mps 636 mmHg 74%
    22:00 +18°C° 0.1 mm 2 mps 636 mmHg 75%
    23:00 +17°C° 0.1 mm 2 mps 636 mmHg 77%
    Show more